Regional Weather Roundup
Issued by NWS Portland, ME

Current Version | Previous Version | Text Only | Print | Product List | Glossary On
Versions: 1 2 3 4 5 6 7 8 9 10 11 12 13 14 15 16 17 18 19 20 21 22 23 24 25 26 27 28 29 30 31 32 33 34 35 36 37 38 39 40 41 42 43 44 45 46 47 48 49 50
820
ASUS41 KGYX 201510
RWRGYX
WEATHER ROUNDUP FOR MAINE AND NEW HAMPSHIRE
NATIONAL WEATHER SERVICE GRAY ME
1100 AM EDT WED MAR 20 2019

MEZ002-005-006-010-012-015-018-020-021-024-026-027-029-201600-
MAINE

CITY           SKY/WX    TMP DP  RH WIND       PRES   REMARKS
PORTLAND       FAIR      38  17  42 S8        30.41F
SANFORD        FAIR      40  16  37 CALM      30.40F
WISCASSET      FAIR      37  13  37 S6        30.42F
ROCKLAND       FAIR      35  14  42 S13       30.41F
FRYEBURG       FAIR      34   8  33 E3        30.37F
LEWISTONAUBURN FAIR      36  11  35 S9        30.38F
AUGUSTA          N/A    N/A N/A N/A MISG      30.38F
WATERVILLE     FAIR      36   5  27 VRB7      30.35F
BANGOR         FAIR      36  10  34 S6        30.38F
GREENVILLE       N/A     33   8  35 MISG      30.25F
MILLINOCKET    FAIR      33   9  36 NW3       30.34F
HOULTON        FAIR      30   7  37 SW10      30.30F
PRESQUE ISLE   FAIR      31  13  47 SW14      30.27F
FRENCHVILLE    FAIR      26   7  44 S6        30.20F
CARIBOU        FAIR      28   8  43 VRB6      30.25F
$$

NHZ002-005-008-009-011-012-014-201600-
NEW HAMPSHIRE

CITY           SKY/WX    TMP DP  RH WIND       PRES   REMARKS
PORTSMOUTH     SUNNY     41  15  34 CALM      30.39F
ROCHESTER      FAIR      40  16  37 S6        30.39F
NASHUA         FAIR      41  19  41 VRB3      30.39F
MANCHESTER     FAIR      40  17  39 VRB3      30.38F
CONCORD        FAIR      37  19  48 CALM      30.38F
LACONIA        FAIR      29  13  51 E5        30.38F
PLYMOUTH       FAIR      32  10  41 CALM      30.37F
BERLIN         FAIR      29  10  45 CALM      30.31F
WHITEFIELD     FAIR      36  13  38 N3        30.32F
JAFFREY        FAIR      39  20  46 VRB7      30.34F
KEENE          FAIR      38  22  52 CALM      30.37F
LEBANON        FAIR      34  17  50 CALM      30.35F
MT WASHINGTON  PTSUNNY   10   7  85 W39G46      N/A  WCI -14
$$

VTZ005-007-008-201600-
VERMONT

CITY           SKY/WX    TMP DP  RH WIND       PRES   REMARKS
ST JOHNSBURY     N/A     28  12  51 MISG      30.33F
MONTPELIER     FAIR      32  18  56 CALM      30.34F
BURLINGTON     FAIR      39  20  46 S12       30.31F
$$

MAZ007-012-024-CTZ003-RIZ002-NYZ038-NYZ072-201600-
SOUTHERN NEW ENGLAND AND NY

CITY           SKY/WX    TMP DP  RH WIND       PRES   REMARKS
BOSTON         FAIR      42  21  43 SE8       30.41F
WORCESTER      FAIR      41  19  41 VRB7      30.35F
NANTUCKET      FAIR      42  18  37 S9        30.44S
PROVIDENCE     FAIR      44  17  33 SE10      30.42F
HARTFORD       FAIR      44  23  43 S10       30.38F
ALBANY         FAIR      45  18  34 S14       30.35F
NEW YORK CITY  PTSUNNY   47  20  34 SW8       30.40F
$$

ANZ081-ANZ082-ANZ150-NHZ014-MEZ023>029-201600-
COASTAL MARINE OBSERVATIONS

STATION/POSITION TIME  TEMP    WIND        PRES    WAVE
                       AIR SEA DIR/SP/G            HT/PER
                 (UTC) (F)     (DEG/KT/KT) (MB)    (FT/S)
MOUNT DESERT ROC 1500   32     200/  7/  8 1030.3F
MATINICUS ROCK   1400   33     150/  6/  6 1030.0S
ISLE OF SHOALS   1400   32     250/  3/  4 1029.9R
CASHES LEDGE BUO 1450   38 39              1030.4F   1/11
$$

.............KEY..............
   WCI - WIND CHILL
   TC  - TEMPERATURE IN CELSIUS
   VSB - VISIBILITY IN MILES
   HX  - HEAT INDEX
   FAIR- INDICATES FEW OR NO CLOUDS BELOW 12,000 FT, WITH NO
         SIGNIFICANT WEATHER AND/OR OBSTRUCTIONS TO VISIBILITY.






USA.gov is the U.S. government's official web portal to all federal, state and local government web resources and services.